QPF
0.00 0.00 0.00 0.01 0.05 0.08 0.04 0.00 0.00 0.00 0.00 0.01 0.00 0.00 0.00 0.01 0.03 0.12 0.03 0.00 0.00 0.00 0.00 0.00 0.00 0.00 0.00 0.01 0.01 0.01 0.01 0.01 0.01 0.01 0.01 0.01 0.01 0.01 0.02 0.01 0.01 0.02 0.02 0.03 0.02 0.01 0.02 0.02 0.03
0.00 0.00 0.00 0.02 0.06 0.08 0.06 0.01 0.00 0.00 0.00 0.00 0.00 0.00 0.00 0.01 0.00 0.01 0.00 0.00 0.00 0.00 0.00 0.00 0.00 0.00 0.00 0.00 0.01 0.01 0.01 0.01 0.01 0.01 0.01 0.01 0.01 0.01 0.02 0.01 0.01 0.02 0.03 0.02 0.01 0.01 0.01 0.02 0.03
0.00 0.00 0.00 0.01 0.03 0.06 0.10 0.02 0.01 0.00 0.00 0.00 0.00 0.00 0.00 0.00 0.00 0.00 0.00 0.00 0.00 0.00 0.00 0.00 0.00 0.00 0.01 0.01 0.01 0.01 0.01 0.01 0.01 0.01 0.01 0.01 0.01 0.02 0.01 0.01 0.01 0.02 0.02 0.01 0.01 0.01 0.01 0.01 0.01
0.00 0.00 0.00 0.01 0.01 0.02 0.05 0.02 0.00 0.00 0.00 0.00 0.00 0.00 0.00 0.00 0.00 0.00 0.00 0.00 0.00 0.00 0.00 0.00 0.00 0.00 0.00 0.01 0.01 0.01 0.01 0.01 0.01 0.01 0.01 0.01 0.01 0.01 0.01 0.01 0.01 0.02 0.01 0.01 0.01 0.01 0.01 0.01 0.01
0.00 0.00 0.02 0.03 0.01 0.00 0.00 0.01 0.00 0.00 0.00 0.00 0.00 0.01 0.01 0.00 0.00 0.00 0.00 0.00 0.00 0.00 0.00 0.00 0.00 0.00 0.00 0.00 0.01 0.01 0.01 0.01 0.01 0.01 0.01 0.01 0.01 0.01 0.01 0.02 0.02 0.02 0.01 0.01 0.01 0.01 0.01 0.01 0.01
0.00 0.01 0.02 0.02 0.01 0.00 0.00 0.00 0.00 0.00 0.00 0.00 0.00 0.01 0.02 0.00 0.00 0.00 0.00 0.00 0.00 0.00 0.00 0.00 0.00 0.00 0.00 0.01 0.01 0.01 0.01 0.01 0.01 0.01 0.01 0.01 0.01 0.01 0.02 0.02 0.01 0.01 0.01 0.01 0.01 0.01 0.02 0.01 0.01
0.00 0.00 0.01 0.01 0.00 0.00 0.00 0.00 0.00 0.00 0.01 0.01 0.00 0.01 0.03 0.01 0.00 0.00 0.00 0.00 0.00 0.00 0.00 0.00 0.00 0.01 0.00 0.00 0.01 0.01 0.01 0.01 0.01 0.01 0.01 0.01 0.01 0.01 0.01 0.01 0.01 0.02 0.01 0.01 0.01 0.01 0.01 0.01 0.01
0.00 0.00 0.00 0.01 0.01 0.00 0.00 0.00 0.00 0.00 0.01 0.00 0.00 0.02 0.07 0.01 0.00 0.00 0.00 0.00 0.00 0.01 0.01 0.01 0.01 0.01 0.01 0.00 0.01 0.01 0.01 0.01 0.01 0.01 0.01 0.01 0.01 0.01 0.01 0.01 0.01 0.01 0.01 0.01 0.01 0.00 0.00 0.01 0.01
0.00 0.00 0.01 0.01 0.00 0.00 0.00 0.00 0.00 0.00 0.00 0.00 0.00 0.01 0.01 0.00 0.00 0.00 0.01 0.01 0.01 0.03 0.06 0.03 0.02 0.02 0.02 0.01 0.01 0.01 0.01 0.01 0.01 0.01 0.01 0.02 0.03 0.02 0.02 0.02 0.00 0.00 0.00 0.00 0.00 0.00 0.00 0.01 0.00
0.00 0.00 0.01 0.00 0.00 0.01 0.00 0.00 0.00 0.00 0.00 0.01 0.03 0.02 0.01 0.00 0.00 0.01 0.01 0.02 0.03 0.05 0.11 0.07 0.05 0.04 0.03 0.03 0.02 0.04 0.02 0.01 0.03 0.02 0.02 0.08 0.08 0.08 0.05 0.02 0.00 0.00 0.00 0.00 0.00 0.00 0.01 0.02 0.02
0.00 0.00 0.00 0.00 0.00 0.00 0.00 0.00 0.00 0.00 0.02 0.06 0.09 0.04 0.02 0.01 0.01 0.01 0.02 0.04 0.07 0.06 0.07 0.06 0.05 0.07 0.07 0.09 0.06 0.05 0.05 0.04 0.05 0.04 0.05 0.08 0.05 0.05 0.05 0.03 0.01 0.02 0.02 0.03 0.02 0.01 0.01 0.05 0.04
0.00 0.00 0.00 0.00 0.00 0.00 0.00 0.00 0.00 0.00 0.01 0.04 0.08 0.04 0.03 0.02 0.02 0.02 0.05 0.09 0.12 0.08 0.06 0.09 0.07 0.08 0.10 0.10 0.08 0.04 0.03 0.03 0.04 0.05 0.03 0.03 0.05 0.06 0.06 0.06 0.06 0.06 0.07 0.09 0.05 0.03 0.03 0.05 0.02
0.00 0.00 0.00 0.00 0.00 0.00 0.00 0.00 0.00 0.00 0.00 0.01 0.03 0.03 0.02 0.04 0.04 0.05 0.08 0.13 0.14 0.11 0.07 0.10 0.10 0.09 0.10 0.12 0.10 0.04 0.03 0.02 0.04 0.05 0.04 0.02 0.03 0.05 0.06 0.06 0.06 0.05 0.05 0.05 0.05 0.04 0.07 0.09 0.03
0.00 0.00 0.00 0.00 0.00 0.00 0.00 0.00 0.00 0.01 0.01 0.01 0.01 0.01 0.02 0.03 0.05 0.06 0.09 0.14 0.15 0.14 0.11 0.11 0.12 0.10 0.09 0.09 0.09 0.07 0.03 0.03 0.03 0.04 0.03 0.03 0.03 0.05 0.05 0.07 0.05 0.04 0.03 0.05 0.05 0.04 0.04 0.05 0.05
0.00 0.00 0.00 0.00 0.00 0.00 0.00 0.01 0.01 0.03 0.01 0.01 0.01 0.00 0.01 0.03 0.04 0.06 0.07 0.09 0.10 0.10 0.10 0.12 0.11 0.11 0.11 0.11 0.09 0.05 0.03 0.03 0.05 0.04 0.04 0.02 0.03 0.04 0.04 0.06 0.05 0.06 0.04 0.05 0.05 0.05 0.04 0.04 0.04
0.00 0.00 0.00 0.00 0.00 0.00 0.00 0.01 0.05 0.05 0.01 0.00 0.00 0.00 0.01 0.03 0.04 0.04 0.05 0.08 0.10 0.10 0.11 0.13 0.11 0.12 0.12 0.14 0.15 0.11 0.06 0.07 0.06 0.04 0.04 0.03 0.03 0.05 0.05 0.06 0.06 0.05 0.04 0.03 0.05 0.05 0.04 0.05 0.05
0.00 0.00 0.00 0.00 0.00 0.00 0.00 0.01 0.02 0.02 0.01 0.01 0.00 0.00 0.01 0.02 0.03 0.03 0.04 0.04 0.05 0.07 0.10 0.14 0.17 0.14 0.11 0.15 0.16 0.18 0.18 0.16 0.09 0.06 0.05 0.04 0.04 0.04 0.05 0.06 0.09 0.05 0.04 0.02 0.02 0.05 0.05 0.05 0.05
0.00 0.00 0.00 0.00 0.00 0.00 0.00 0.00 0.02 0.03 0.01 0.00 0.00 0.00 0.01 0.02 0.03 0.04 0.04 0.03 0.03 0.05 0.09 0.13 0.16 0.15 0.15 0.18 0.19 0.19 0.21 0.24 0.14 0.10 0.08 0.06 0.04 0.04 0.05 0.06 0.07 0.05 0.05 0.05 0.05 0.07 0.05 0.05 0.05
0.00 0.00 0.00 0.00 0.00 0.00 0.00 0.00 0.00 0.00 0.00 0.00 0.00 0.00 0.01 0.02 0.03 0.04 0.04 0.04 0.04 0.05 0.07 0.10 0.14 0.16 0.14 0.15 0.16 0.15 0.18 0.21 0.16 0.10 0.07 0.07 0.05 0.06 0.06 0.07 0.09 0.08 0.06 0.05 0.06 0.05 0.04 0.04 0.04
0.00 0.01 0.00 0.00 0.00 0.00 0.00 0.00 0.00 0.00 0.00 0.00 0.00 0.00 0.01 0.02 0.03 0.03 0.04 0.04 0.05 0.06 0.06 0.09 0.14 0.16 0.13 0.12 0.14 0.14 0.16 0.15 0.13 0.12 0.13 0.08 0.06 0.06 0.04 0.08 0.07 0.07 0.07 0.07 0.07 0.05 0.06 0.04 0.03
0.00 0.00 0.01 0.00 0.00 0.01 0.01 0.01 0.01 0.01 0.01 0.01 0.00 0.01 0.02 0.03 0.02 0.02 0.03 0.05 0.06 0.07 0.07 0.09 0.14 0.15 0.14 0.16 0.15 0.16 0.20 0.18 0.17 0.16 0.15 0.11 0.09 0.07 0.07 0.07 0.06 0.06 0.04 0.07 0.06 0.03 0.04 0.05 0.04
0.00 0.00 0.00 0.00 0.00 0.00 0.01 0.01 0.01 0.01 0.02 0.03 0.01 0.01 0.02 0.04 0.03 0.02 0.03 0.05 0.05 0.06 0.09 0.12 0.16 0.17 0.18 0.20 0.18 0.13 0.12 0.12 0.12 0.12 0.13 0.13 0.12 0.09 0.09 0.07 0.06 0.05 0.04 0.07 0.04 0.04 0.03 0.05 0.05
0.00 0.00 0.00 0.00 0.00 0.00 0.01 0.01 0.02 0.01 0.03 0.03 0.01 0.00 0.01 0.02 0.02 0.02 0.02 0.03 0.04 0.05 0.08 0.12 0.18 0.17 0.17 0.20 0.19 0.17 0.14 0.14 0.14 0.15 0.17 0.14 0.14 0.12 0.09 0.08 0.06 0.05 0.05 0.06 0.06 0.08 0.05 0.04 0.04
0.00 0.00 0.00 0.00 0.00 0.01 0.01 0.01 0.02 0.02 0.02 0.02 0.01 0.00 0.00 0.01 0.01 0.02 0.03 0.03 0.04 0.05 0.09 0.11 0.16 0.14 0.14 0.16 0.18 0.18 0.17 0.18 0.19 0.19 0.15 0.12 0.10 0.10 0.10 0.10 0.09 0.07 0.06 0.07 0.06 0.06 0.05 0.05 0.04
0.00 0.00 0.01 0.02 0.03 0.02 0.02 0.02 0.02 0.01 0.01 0.01 0.01 0.00 0.00 0.01 0.01 0.01 0.02 0.02 0.04 0.06 0.11 0.12 0.13 0.13 0.14 0.15 0.16 0.17 0.18 0.19 0.18 0.14 0.15 0.11 0.09 0.07 0.07 0.08 0.10 0.08 0.06 0.06 0.07 0.06 0.06 0.05 0.04
0.00 0.00 0.01 0.02 0.04 0.03 0.04 0.03 0.02 0.00 0.00 0.00 0.00 0.00 0.00 0.00 0.00 0.00 0.01 0.02 0.04 0.04 0.07 0.09 0.11 0.13 0.16 0.16 0.16 0.17 0.19 0.18 0.16 0.16 0.14 0.11 0.08 0.06 0.06 0.07 0.07 0.06 0.05 0.05 0.07 0.05 0.04 0.04 0.03
0.00 0.00 0.00 0.00 0.00 0.02 0.04 0.04 0.03 0.01 0.01 0.00 0.00 0.00 0.00 0.00 0.01 0.01 0.01 0.02 0.03 0.03 0.05 0.07 0.10 0.14 0.16 0.17 0.17 0.15 0.14 0.15 0.14 0.14 0.15 0.10 0.08 0.07 0.08 0.08 0.07 0.06 0.05 0.06 0.06 0.05 0.05 0.04 0.02
0.00 0.00 0.00 0.00 0.01 0.02 0.02 0.04 0.05 0.03 0.03 0.01 0.00 0.00 0.00 0.00 0.01 0.01 0.01 0.01 0.02 0.03 0.05 0.06 0.08 0.12 0.12 0.14 0.14 0.12 0.13 0.12 0.12 0.11 0.12 0.10 0.08 0.08 0.08 0.07 0.07 0.06 0.06 0.06 0.06 0.06 0.05 0.05 0.03
0.00 0.00 0.00 0.00 0.00 0.02 0.04 0.08 0.07 0.04 0.04 0.02 0.01 0.00 0.00 0.00 0.00 0.01 0.01 0.01 0.01 0.02 0.03 0.04 0.05 0.08 0.11 0.12 0.11 0.12 0.13 0.12 0.10 0.09 0.09 0.10 0.09 0.11 0.09 0.06 0.06 0.06 0.06 0.06 0.06 0.06 0.06 0.05 0.03
0.00 0.00 0.00 0.01 0.01 0.00 0.02 0.07 0.05 0.03 0.05 0.05 0.04 0.02 0.00 0.00 0.00 0.00 0.00 0.00 0.01 0.01 0.02 0.04 0.04 0.04 0.07 0.09 0.10 0.10 0.12 0.12 0.10 0.09 0.10 0.10 0.09 0.10 0.10 0.08 0.07 0.07 0.08 0.10 0.08 0.07 0.06 0.06 0.04
MSLP
1006.30 1006.95 1007.63 1008.18 1008.49 1008.50 1008.20 1007.70 1007.10 1006.55 1006.17 1006.01 1006.09 1006.33 1006.65 1006.95 1007.16 1007.25 1007.27 1007.29 1007.38 1007.64 1008.08 1008.71 1009.46 1010.24 1010.95 1011.52 1011.93 1012.17 1012.30 1012.38 1012.50 1012.68 1012.95 1013.27 1013.62 1013.93 1014.17 1014.33 1014.42 1014.46 1014.49 1014.55 1014.64 1014.78 1014.93 1015.08 1015.21
1006.42 1007.16 1007.87 1008.38 1008.58 1008.43 1007.98 1007.31 1006.58 1005.94 1005.50 1005.31 1005.37 1005.60 1005.91 1006.21 1006.43 1006.56 1006.65 1006.77 1007.00 1007.40 1008.01 1008.77 1009.64 1010.49 1011.24 1011.82 1012.21 1012.43 1012.54 1012.62 1012.74 1012.94 1013.22 1013.56 1013.90 1014.20 1014.42 1014.56 1014.62 1014.66 1014.70 1014.78 1014.90 1015.05 1015.22 1015.37 1015.48
1006.63 1007.43 1008.12 1008.54 1008.60 1008.29 1007.67 1006.88 1006.05 1005.35 1004.88 1004.69 1004.74 1004.97 1005.28 1005.58 1005.82 1005.99 1006.15 1006.37 1006.72 1007.26 1008.00 1008.89 1009.83 1010.74 1011.50 1012.08 1012.46 1012.67 1012.78 1012.87 1013.01 1013.23 1013.52 1013.86 1014.19 1014.46 1014.66 1014.77 1014.82 1014.86 1014.92 1015.02 1015.17 1015.34 1015.52 1015.67 1015.76
1006.90 1007.70 1008.30 1008.58 1008.49 1008.03 1007.29 1006.40 1005.53 1004.83 1004.38 1004.22 1004.30 1004.54 1004.86 1005.16 1005.41 1005.61 1005.83 1006.13 1006.59 1007.24 1008.08 1009.04 1010.04 1010.96 1011.73 1012.29 1012.65 1012.86 1012.98 1013.09 1013.26 1013.50 1013.81 1014.15 1014.47 1014.73 1014.90 1014.99 1015.04 1015.09 1015.16 1015.29 1015.46 1015.66 1015.84 1015.97 1016.04
1007.18 1007.88 1008.35 1008.47 1008.21 1007.62 1006.80 1005.89 1005.05 1004.41 1004.04 1003.95 1004.09 1004.36 1004.68 1004.98 1005.23 1005.46 1005.71 1006.07 1006.60 1007.32 1008.22 1009.22 1010.23 1011.15 1011.89 1012.43 1012.78 1012.98 1013.11 1013.25 1013.45 1013.73 1014.07 1014.42 1014.73 1014.98 1015.14 1015.23 1015.28 1015.34 1015.44 1015.59 1015.78 1015.98 1016.15 1016.26 1016.30
1007.38 1007.93 1008.21 1008.15 1007.74 1007.06 1006.21 1005.35 1004.61 1004.10 1003.86 1003.89 1004.10 1004.42 1004.76 1005.05 1005.28 1005.50 1005.76 1006.15 1006.71 1007.47 1008.39 1009.40 1010.39 1011.27 1011.98 1012.49 1012.81 1013.01 1013.17 1013.34 1013.58 1013.90 1014.26 1014.63 1014.96 1015.20 1015.37 1015.46 1015.52 1015.60 1015.72 1015.89 1016.09 1016.29 1016.44 1016.51 1016.51
1007.46 1007.81 1007.87 1007.62 1007.09 1006.35 1005.54 1004.79 1004.21 1003.88 1003.82 1003.98 1004.29 1004.66 1005.00 1005.27 1005.47 1005.67 1005.92 1006.31 1006.88 1007.64 1008.55 1009.53 1010.49 1011.33 1011.99 1012.46 1012.77 1012.97 1013.15 1013.36 1013.64 1014.00 1014.39 1014.78 1015.12 1015.38 1015.55 1015.66 1015.74 1015.84 1015.97 1016.15 1016.34 1016.53 1016.65 1016.69 1016.65
1007.38 1007.51 1007.36 1006.94 1006.30 1005.56 1004.83 1004.23 1003.85 1003.73 1003.85 1004.16 1004.56 1004.96 1005.30 1005.54 1005.71 1005.86 1006.09 1006.46 1007.02 1007.76 1008.65 1009.59 1010.50 1011.29 1011.92 1012.36 1012.66 1012.88 1013.08 1013.33 1013.65 1014.04 1014.46 1014.87 1015.22 1015.49 1015.68 1015.80 1015.90 1016.01 1016.15 1016.33 1016.52 1016.68 1016.77 1016.78 1016.72
1007.15 1007.06 1006.72 1006.16 1005.47 1004.76 1004.14 1003.70 1003.52 1003.60 1003.90 1004.33 1004.80 1005.22 1005.54 1005.75 1005.88 1006.01 1006.20 1006.55 1007.09 1007.81 1008.66 1009.57 1010.43 1011.18 1011.77 1012.20 1012.50 1012.73 1012.96 1013.25 1013.60 1014.02 1014.46 1014.89 1015.25 1015.53 1015.73 1015.87 1015.98 1016.10 1016.25 1016.42 1016.59 1016.73 1016.81 1016.80 1016.73
1006.81 1006.54 1006.04 1005.39 1004.68 1004.02 1003.52 1003.25 1003.24 1003.48 1003.90 1004.42 1004.93 1005.35 1005.65 1005.83 1005.93 1006.02 1006.21 1006.54 1007.06 1007.76 1008.58 1009.45 1010.28 1011.00 1011.57 1012.00 1012.31 1012.56 1012.82 1013.13 1013.51 1013.94 1014.40 1014.83 1015.21 1015.50 1015.71 1015.86 1015.98 1016.11 1016.26 1016.42 1016.58 1016.71 1016.78 1016.77 1016.71
1006.41 1006.01 1005.42 1004.72 1004.02 1003.43 1003.03 1002.89 1003.00 1003.34 1003.84 1004.38 1004.90 1005.30 1005.58 1005.73 1005.81 1005.90 1006.08 1006.42 1006.94 1007.62 1008.42 1009.26 1010.06 1010.76 1011.33 1011.76 1012.09 1012.37 1012.66 1012.99 1013.38 1013.82 1014.28 1014.72 1015.10 1015.39 1015.62 1015.78 1015.92 1016.05 1016.20 1016.36 1016.52 1016.65 1016.72 1016.73 1016.70
1006.05 1005.57 1004.93 1004.23 1003.56 1003.03 1002.71 1002.65 1002.82 1003.20 1003.69 1004.22 1004.69 1005.06 1005.31 1005.45 1005.54 1005.65 1005.86 1006.21 1006.74 1007.42 1008.20 1009.02 1009.80 1010.49 1011.05 1011.49 1011.85 1012.15 1012.47 1012.82 1013.22 1013.66 1014.11 1014.55 1014.93 1015.24 1015.48 1015.66 1015.82 1015.97 1016.12 1016.29 1016.45 1016.58 1016.68 1016.72 1016.72
1005.78 1005.28 1004.64 1003.96 1003.34 1002.86 1002.59 1002.54 1002.71 1003.05 1003.49 1003.94 1004.35 1004.67 1004.90 1005.04 1005.16 1005.32 1005.57 1005.97 1006.51 1007.19 1007.96 1008.76 1009.52 1010.19 1010.76 1011.22 1011.59 1011.93 1012.26 1012.62 1013.02 1013.45 1013.90 1014.33 1014.71 1015.04 1015.31 1015.53 1015.71 1015.89 1016.06 1016.24 1016.41 1016.56 1016.68 1016.76 1016.81
1005.66 1005.17 1004.56 1003.93 1003.36 1002.92 1002.65 1002.58 1002.68 1002.93 1003.25 1003.60 1003.93 1004.20 1004.41 1004.58 1004.76 1004.98 1005.30 1005.73 1006.30 1006.98 1007.73 1008.50 1009.24 1009.91 1010.47 1010.95 1011.35 1011.70 1012.04 1012.40 1012.80 1013.22 1013.65 1014.08 1014.48 1014.83 1015.14 1015.40 1015.63 1015.84 1016.04 1016.23 1016.42 1016.60 1016.74 1016.87 1016.97
1005.66 1005.21 1004.66 1004.09 1003.57 1003.16 1002.88 1002.74 1002.75 1002.86 1003.05 1003.27 1003.50 1003.72 1003.94 1004.15 1004.39 1004.69 1005.07 1005.56 1006.15 1006.82 1007.55 1008.29 1009.00 1009.65 1010.22 1010.71 1011.13 1011.50 1011.85 1012.21 1012.58 1012.98 1013.40 1013.83 1014.24 1014.63 1014.98 1015.30 1015.58 1015.83 1016.07 1016.29 1016.50 1016.69 1016.87 1017.02 1017.15
1005.75 1005.34 1004.86 1004.37 1003.92 1003.53 1003.23 1003.03 1002.91 1002.88 1002.91 1003.01 1003.14 1003.32 1003.54 1003.80 1004.11 1004.49 1004.94 1005.47 1006.07 1006.72 1007.42 1008.12 1008.81 1009.45 1010.02 1010.52 1010.96 1011.35 1011.70 1012.05 1012.40 1012.78 1013.18 1013.59 1014.02 1014.43 1014.84 1015.21 1015.56 1015.87 1016.14 1016.39 1016.62 1016.83 1017.02 1017.19 1017.35
1005.85 1005.50 1005.11 1004.72 1004.34 1004.00 1003.69 1003.42 1003.18 1003.01 1002.89 1002.85 1002.90 1003.03 1003.25 1003.56 1003.94 1004.39 1004.90 1005.45 1006.05 1006.69 1007.34 1008.01 1008.67 1009.30 1009.88 1010.41 1010.87 1011.28 1011.64 1011.97 1012.29 1012.63 1012.99 1013.39 1013.82 1014.26 1014.71 1015.15 1015.55 1015.92 1016.23 1016.51 1016.75 1016.97 1017.17 1017.36 1017.54
1005.88 1005.60 1005.33 1005.06 1004.80 1004.52 1004.23 1003.90 1003.57 1003.26 1003.00 1002.83 1002.78 1002.87 1003.09 1003.43 1003.86 1004.36 1004.91 1005.48 1006.07 1006.68 1007.30 1007.93 1008.57 1009.20 1009.81 1010.36 1010.86 1011.29 1011.66 1011.97 1012.26 1012.56 1012.88 1013.24 1013.66 1014.11 1014.59 1015.08 1015.54 1015.95 1016.31 1016.62 1016.87 1017.09 1017.29 1017.49 1017.67
1005.79 1005.62 1005.50 1005.40 1005.28 1005.10 1004.84 1004.49 1004.07 1003.64 1003.24 1002.94 1002.79 1002.81 1003.01 1003.36 1003.82 1004.36 1004.93 1005.51 1006.08 1006.66 1007.24 1007.85 1008.48 1009.12 1009.76 1010.36 1010.90 1011.36 1011.74 1012.05 1012.31 1012.55 1012.82 1013.14 1013.52 1013.97 1014.46 1014.98 1015.48 1015.94 1016.34 1016.67 1016.94 1017.17 1017.37 1017.57 1017.76
1005.58 1005.56 1005.63 1005.73 1005.78 1005.73 1005.53 1005.17 1004.68 1004.12 1003.58 1003.14 1002.87 1002.81 1002.97 1003.30 1003.78 1004.33 1004.90 1005.48 1006.03 1006.58 1007.14 1007.73 1008.35 1009.02 1009.69 1010.34 1010.94 1011.44 1011.85 1012.15 1012.38 1012.58 1012.79 1013.05 1013.39 1013.82 1014.31 1014.84 1015.38 1015.87 1016.31 1016.67 1016.96 1017.19 1017.39 1017.58 1017.78
1005.29 1005.46 1005.75 1006.08 1006.33 1006.42 1006.29 1005.92 1005.35 1004.66 1003.97 1003.38 1002.97 1002.81 1002.89 1003.19 1003.66 1004.20 1004.78 1005.35 1005.89 1006.41 1006.95 1007.52 1008.14 1008.83 1009.54 1010.25 1010.90 1011.46 1011.89 1012.21 1012.42 1012.58 1012.74 1012.95 1013.24 1013.63 1014.10 1014.64 1015.20 1015.73 1016.19 1016.58 1016.89 1017.14 1017.35 1017.54 1017.74
1004.97 1005.37 1005.92 1006.48 1006.94 1007.16 1007.09 1006.70 1006.04 1005.21 1004.35 1003.59 1003.03 1002.75 1002.75 1003.00 1003.43 1003.98 1004.55 1005.11 1005.64 1006.14 1006.65 1007.20 1007.82 1008.51 1009.25 1010.00 1010.71 1011.32 1011.80 1012.14 1012.36 1012.51 1012.63 1012.79 1013.04 1013.39 1013.85 1014.38 1014.95 1015.50 1016.00 1016.43 1016.76 1017.03 1017.25 1017.45 1017.65
1004.71 1005.35 1006.15 1006.94 1007.57 1007.91 1007.87 1007.44 1006.68 1005.70 1004.66 1003.72 1003.01 1002.60 1002.51 1002.70 1003.12 1003.66 1004.24 1004.79 1005.31 1005.78 1006.26 1006.78 1007.38 1008.06 1008.80 1009.58 1010.33 1010.99 1011.52 1011.91 1012.15 1012.31 1012.42 1012.56 1012.78 1013.10 1013.53 1014.06 1014.64 1015.21 1015.75 1016.21 1016.58 1016.87 1017.10 1017.30 1017.50
1004.56 1005.43 1006.44 1007.42 1008.18 1008.59 1008.55 1008.06 1007.18 1006.05 1004.84 1003.74 1002.88 1002.35 1002.19 1002.34 1002.75 1003.29 1003.88 1004.44 1004.95 1005.40 1005.84 1006.31 1006.85 1007.49 1008.22 1008.99 1009.76 1010.46 1011.05 1011.49 1011.78 1011.97 1012.11 1012.25 1012.46 1012.77 1013.19 1013.71 1014.29 1014.89 1015.45 1015.94 1016.35 1016.67 1016.92 1017.12 1017.31
1004.51 1005.56 1006.73 1007.83 1008.67 1009.10 1009.03 1008.46 1007.46 1006.19 1004.85 1003.61 1002.64 1002.04 1001.82 1001.97 1002.38 1002.95 1003.56 1004.14 1004.64 1005.06 1005.45 1005.85 1006.32 1006.89 1007.55 1008.30 1009.06 1009.78 1010.42 1010.92 1011.29 1011.54 1011.72 1011.90 1012.12 1012.43 1012.84 1013.36 1013.94 1014.55 1015.14 1015.66 1016.10 1016.45 1016.71 1016.92 1017.09
1004.54 1005.70 1006.96 1008.10 1008.95 1009.34 1009.21 1008.56 1007.47 1006.10 1004.66 1003.35 1002.32 1001.69 1001.47 1001.63 1002.07 1002.68 1003.33 1003.93 1004.43 1004.83 1005.16 1005.49 1005.86 1006.33 1006.92 1007.60 1008.34 1009.07 1009.74 1010.30 1010.74 1011.07 1011.33 1011.55 1011.81 1012.13 1012.54 1013.05 1013.63 1014.24 1014.83 1015.38 1015.84 1016.21 1016.49 1016.70 1016.86
1004.58 1005.77 1007.02 1008.13 1008.92 1009.25 1009.04 1008.32 1007.17 1005.76 1004.30 1002.98 1001.96 1001.34 1001.16 1001.37 1001.87 1002.53 1003.23 1003.86 1004.38 1004.76 1005.04 1005.29 1005.56 1005.93 1006.42 1007.02 1007.71 1008.43 1009.13 1009.74 1010.26 1010.67 1011.00 1011.28 1011.58 1011.91 1012.32 1012.82 1013.38 1013.97 1014.57 1015.12 1015.59 1015.98 1016.26 1016.46 1016.61
1004.58 1005.71 1006.87 1007.87 1008.55 1008.78 1008.51 1007.75 1006.60 1005.21 1003.79 1002.53 1001.58 1001.04 1000.93 1001.21 1001.78 1002.51 1003.26 1003.93 1004.46 1004.84 1005.09 1005.28 1005.48 1005.76 1006.15 1006.67 1007.30 1007.99 1008.70 1009.35 1009.93 1010.41 1010.81 1011.15 1011.47 1011.82 1012.22 1012.69 1013.21 1013.78 1014.34 1014.88 1015.35 1015.73 1016.02 1016.22 1016.35
1004.52 1005.51 1006.50 1007.33 1007.86 1007.99 1007.66 1006.90 1005.80 1004.50 1003.20 1002.06 1001.23 1000.80 1000.78 1001.14 1001.77 1002.55 1003.36 1004.07 1004.64 1005.04 1005.29 1005.46 1005.62 1005.83 1006.16 1006.61 1007.19 1007.84 1008.54 1009.21 1009.82 1010.35 1010.79 1011.17 1011.52 1011.86 1012.23 1012.65 1013.12 1013.63 1014.15 1014.65 1015.09 1015.46 1015.74 1015.94 1016.06
1004.42 1005.20 1005.97 1006.59 1006.96 1006.98 1006.62 1005.90 1004.90 1003.74 1002.61 1001.63 1000.94 1000.63 1000.70 1001.11 1001.78 1002.60 1003.44 1004.19 1004.81 1005.25 1005.54 1005.74 1005.91 1006.11 1006.41 1006.83 1007.36 1007.98 1008.65 1009.32 1009.94 1010.48 1010.94 1011.34 1011.67 1011.99 1012.32 1012.68 1013.08 1013.51 1013.96 1014.40 1014.80 1015.14 1015.41 1015.60 1015.72
Thickness
5833 5835 5834 5827 5808 5796 5801 5828 5840 5836 5837 5844 5847 5842 5829 5817 5804 5790 5824 5837 5830 5819 5809 5802 5798 5795 5791 5789 5786 5783 5780 5778 5775 5773 5771 5770 5768 5767 5766 5765 5763 5762 5761 5759 5758 5756 5755 5754 5753
5839 5840 5833 5821 5799 5786 5800 5828 5834 5836 5843 5848 5847 5842 5831 5822 5829 5826 5831 5833 5828 5817 5809 5803 5797 5794 5790 5787 5785 5782 5779 5777 5774 5772 5770 5769 5767 5766 5764 5763 5762 5760 5759 5758 5756 5755 5754 5752 5752
5839 5842 5826 5817 5801 5798 5807 5830 5836 5846 5851 5848 5841 5841 5832 5824 5831 5830 5834 5833 5825 5816 5808 5800 5796 5792 5789 5786 5783 5781 5778 5775 5773 5771 5769 5767 5766 5764 5763 5761 5760 5759 5758 5756 5755 5754 5752 5751 5750
5837 5835 5827 5816 5809 5828 5833 5840 5847 5844 5845 5848 5841 5830 5831 5838 5838 5837 5837 5833 5822 5812 5805 5797 5794 5790 5787 5784 5782 5779 5776 5774 5772 5770 5768 5766 5764 5763 5762 5760 5759 5758 5756 5755 5753 5752 5750 5749 5749
5838 5827 5811 5806 5820 5841 5853 5854 5853 5841 5840 5843 5839 5822 5818 5835 5844 5840 5835 5829 5819 5811 5803 5795 5791 5788 5785 5782 5780 5777 5775 5773 5771 5768 5766 5764 5763 5761 5760 5759 5757 5756 5755 5753 5752 5750 5749 5748 5748
5827 5824 5801 5800 5823 5847 5857 5860 5854 5844 5842 5843 5837 5822 5815 5833 5836 5834 5833 5826 5821 5811 5801 5792 5788 5785 5783 5780 5778 5776 5773 5771 5769 5767 5765 5763 5761 5760 5759 5757 5756 5754 5753 5752 5750 5749 5748 5747 5747
5819 5816 5809 5816 5831 5841 5854 5863 5853 5844 5838 5840 5844 5820 5814 5827 5834 5835 5830 5825 5819 5811 5800 5791 5786 5783 5780 5778 5776 5774 5772 5770 5768 5766 5764 5762 5760 5758 5757 5756 5754 5753 5751 5750 5749 5748 5747 5746 5746
5834 5821 5815 5824 5830 5837 5859 5863 5860 5851 5842 5854 5848 5820 5810 5824 5834 5832 5826 5821 5815 5808 5799 5792 5787 5782 5778 5775 5773 5771 5770 5768 5766 5765 5763 5761 5759 5758 5756 5754 5753 5751 5750 5749 5748 5747 5746 5746 5746
5837 5812 5806 5823 5833 5842 5858 5855 5859 5865 5852 5848 5845 5835 5832 5834 5832 5824 5817 5813 5808 5803 5797 5793 5788 5783 5780 5776 5772 5769 5768 5766 5765 5763 5762 5761 5759 5758 5755 5754 5752 5750 5749 5748 5747 5746 5746 5745 5745
5828 5808 5817 5843 5853 5851 5854 5852 5855 5852 5838 5830 5828 5830 5834 5831 5824 5815 5809 5805 5801 5797 5795 5794 5789 5784 5781 5778 5771 5769 5768 5765 5765 5764 5762 5761 5761 5759 5757 5753 5751 5750 5749 5748 5747 5746 5745 5745 5746
5830 5822 5836 5851 5860 5858 5852 5853 5858 5844 5827 5823 5817 5819 5825 5823 5818 5813 5808 5804 5800 5797 5795 5793 5789 5784 5782 5778 5772 5771 5770 5766 5766 5765 5763 5762 5761 5759 5756 5753 5750 5750 5749 5749 5748 5747 5747 5747 5748
5830 5836 5845 5850 5859 5855 5852 5853 5851 5844 5837 5841 5836 5830 5824 5819 5815 5811 5805 5802 5798 5795 5794 5792 5788 5783 5781 5778 5775 5773 5771 5768 5768 5765 5765 5763 5762 5761 5758 5755 5753 5752 5751 5751 5751 5751 5750 5749 5750
5828 5834 5845 5852 5855 5854 5853 5849 5847 5842 5849 5848 5841 5831 5823 5818 5816 5813 5808 5802 5797 5791 5790 5788 5786 5782 5779 5776 5774 5774 5773 5770 5769 5766 5765 5764 5763 5761 5759 5758 5756 5755 5754 5753 5752 5751 5750 5749 5749
5834 5838 5842 5848 5850 5852 5845 5843 5839 5837 5845 5842 5836 5827 5824 5820 5816 5809 5803 5797 5792 5788 5787 5786 5782 5779 5776 5773 5771 5772 5772 5771 5769 5767 5765 5764 5763 5761 5759 5757 5757 5756 5755 5754 5752 5751 5750 5749 5748
5837 5828 5830 5839 5844 5848 5843 5825 5829 5836 5840 5833 5832 5828 5822 5818 5813 5807 5803 5796 5792 5788 5786 5782 5779 5776 5772 5770 5769 5769 5770 5769 5768 5766 5764 5763 5762 5759 5758 5757 5756 5756 5755 5754 5753 5751 5750 5748 5747
5826 5815 5808 5829 5841 5846 5831 5806 5827 5836 5829 5824 5827 5825 5819 5814 5812 5808 5803 5797 5792 5787 5782 5779 5777 5773 5769 5767 5766 5766 5767 5767 5766 5765 5763 5762 5761 5759 5757 5756 5755 5755 5755 5754 5752 5751 5749 5747 5746
5807 5799 5804 5822 5842 5843 5830 5811 5826 5836 5826 5820 5824 5822 5817 5811 5808 5806 5801 5795 5790 5786 5781 5776 5773 5770 5768 5765 5763 5763 5763 5762 5763 5764 5762 5760 5759 5758 5757 5756 5755 5755 5754 5753 5753 5750 5748 5745 5744
5795 5802 5808 5813 5834 5837 5825 5819 5828 5832 5826 5823 5824 5821 5814 5809 5805 5804 5800 5794 5789 5784 5779 5774 5770 5767 5765 5762 5760 5759 5759 5757 5759 5761 5761 5760 5758 5757 5756 5755 5754 5754 5753 5752 5751 5748 5747 5746 5744
5808 5806 5806 5817 5836 5831 5822 5820 5827 5832 5828 5825 5822 5818 5813 5808 5806 5802 5797 5792 5785 5780 5775 5772 5767 5764 5761 5758 5755 5753 5751 5753 5755 5758 5759 5758 5757 5756 5755 5755 5753 5753 5752 5751 5749 5747 5745 5744 5745
5807 5801 5804 5816 5830 5824 5816 5816 5828 5832 5825 5825 5822 5816 5811 5806 5801 5796 5792 5787 5782 5776 5772 5768 5764 5761 5759 5757 5755 5754 5752 5753 5755 5756 5756 5757 5756 5755 5755 5754 5752 5752 5750 5749 5748 5746 5743 5743 5745
5801 5799 5802 5804 5816 5823 5812 5804 5814 5824 5826 5822 5824 5819 5813 5806 5798 5793 5787 5783 5779 5773 5769 5767 5763 5760 5758 5756 5753 5752 5749 5749 5750 5751 5752 5754 5753 5753 5753 5753 5752 5751 5750 5748 5747 5746 5743 5740 5744
5791 5810 5810 5805 5799 5795 5800 5778 5797 5807 5808 5807 5815 5815 5809 5806 5800 5793 5786 5781 5776 5772 5769 5765 5761 5759 5756 5754 5751 5749 5745 5745 5748 5750 5750 5751 5752 5752 5751 5751 5751 5750 5750 5748 5747 5747 5746 5743 5740
5802 5816 5811 5806 5798 5790 5796 5781 5786 5802 5794 5797 5807 5812 5809 5805 5800 5793 5787 5781 5777 5773 5768 5763 5759 5756 5754 5752 5751 5749 5747 5748 5749 5750 5749 5749 5750 5751 5751 5750 5750 5749 5749 5749 5748 5747 5746 5744 5742
5813 5808 5803 5800 5790 5768 5783 5776 5777 5794 5797 5803 5808 5809 5807 5804 5800 5793 5788 5782 5776 5773 5768 5763 5757 5754 5753 5751 5750 5748 5748 5748 5747 5746 5745 5746 5747 5748 5749 5749 5749 5748 5748 5748 5747 5746 5745 5744 5743
5805 5785 5764 5759 5757 5761 5783 5776 5780 5804 5815 5816 5811 5809 5807 5804 5798 5791 5784 5778 5774 5770 5766 5762 5757 5753 5752 5750 5750 5749 5748 5748 5746 5746 5745 5745 5746 5747 5748 5749 5748 5747 5747 5747 5746 5745 5744 5743 5742
5796 5789 5760 5743 5741 5753 5766 5761 5782 5814 5820 5822 5818 5814 5809 5802 5797 5790 5784 5779 5774 5770 5766 5762 5757 5752 5751 5750 5749 5749 5748 5748 5747 5747 5748 5747 5748 5749 5750 5749 5747 5746 5746 5746 5745 5744 5743 5742 5741
5792 5790 5800 5781 5768 5757 5759 5765 5783 5808 5811 5812 5812 5811 5806 5802 5796 5790 5784 5780 5775 5771 5767 5763 5757 5753 5751 5750 5748 5748 5748 5748 5747 5748 5747 5748 5749 5750 5749 5747 5745 5745 5744 5744 5742 5741 5740 5740 5739
5806 5802 5792 5776 5756 5750 5763 5763 5763 5780 5788 5799 5801 5803 5803 5801 5796 5791 5785 5780 5777 5773 5768 5764 5759 5755 5753 5751 5749 5748 5748 5747 5747 5747 5746 5747 5748 5748 5747 5745 5744 5743 5742 5741 5740 5738 5738 5737 5736
5793 5791 5788 5783 5779 5757 5746 5750 5777 5780 5788 5790 5795 5801 5803 5800 5796 5791 5785 5782 5777 5773 5769 5763 5759 5755 5753 5751 5750 5749 5747 5747 5746 5745 5746 5746 5745 5745 5744 5743 5742 5741 5740 5739 5737 5736 5736 5734 5733
5800 5792 5785 5763 5761 5767 5755 5752 5786 5787 5792 5792 5793 5798 5801 5800 5796 5791 5785 5781 5776 5772 5768 5763 5759 5755 5753 5752 5750 5748 5747 5745 5744 5744 5744 5744 5743 5742 5742 5741 5740 5738 5738 5736 5734 5732 5733 5731 5729